Time,TemperatureF,DewpointF,PressureIn,WindDirection,WindDirectionDegrees,WindSpeedMPH,WindSpeedGustMPH,Humidity,HourlyPrecipIn,Conditions,Clouds,dailyrainin,SoftwareType,DateUTC
2013-01-08 00:03:00,32.0,20.0,29.84,NW,304,0.0,8.0,60,0.00,,,0.00,,2013-01-08 05:03:00,
2013-01-08 00:12:00,32.0,20.0,29.84,NW,304,0.0,8.0,60,0.00,,,0.00,,2013-01-08 05:12:00,
2013-01-08 00:22:00,32.0,20.0,29.85,NNW,327,0.0,3.0,62,0.00,,,0.00,,2013-01-08 05:22:00,
2013-01-08 00:33:00,32.0,20.0,29.85,NNW,327,0.0,3.0,62,0.00,,,0.00,,2013-01-08 05:33:00,
2013-01-08 00:42:00,32.0,20.0,29.85,NNW,327,0.0,3.0,62,0.00,,,0.00,,2013-01-08 05:42:00,
2013-01-08 00:53:00,31.0,20.0,29.86,NW,325,0.0,3.0,62,0.00,,,0.00,,2013-01-08 05:53:00,
2013-01-08 01:02:00,30.0,20.0,29.86,NW,325,0.0,1.0,66,0.00,,,0.00,,2013-01-08 06:02:00,
2013-01-08 01:12:00,30.0,20.0,29.86,NW,325,0.0,1.0,66,0.00,,,0.00,,2013-01-08 06:12:00,
2013-01-08 01:22:00,30.0,21.0,29.87,NW,325,0.0,2.0,68,0.00,,,0.00,,2013-01-08 06:22:00,
2013-01-08 01:33:00,30.0,21.0,29.87,SW,236,0.0,3.0,68,0.00,,,0.00,,2013-01-08 06:33:00,
2013-01-08 01:42:00,30.0,21.0,29.87,SW,236,0.0,3.0,68,0.00,,,0.00,,2013-01-08 06:42:00,
2013-01-08 01:52:00,30.0,20.0,29.88,WSW,243,0.0,5.0,65,0.00,,,0.00,,2013-01-08 06:52:00,
2013-01-08 02:02:00,31.0,20.0,29.88,SW,234,0.0,5.0,64,0.00,,,0.00,,2013-01-08 07:02:00,
2013-01-08 02:12:00,31.0,20.0,29.88,SW,234,0.0,5.0,64,0.00,,,0.00,,2013-01-08 07:12:00,
2013-01-08 02:22:00,31.0,20.0,29.88,WSW,246,0.0,9.0,64,0.00,,,0.00,,2013-01-08 07:22:00,
2013-01-08 02:32:00,31.0,20.0,29.88,WSW,257,1.0,8.0,64,0.00,,,0.00,,2013-01-08 07:32:00,
2013-01-08 02:42:00,31.0,20.0,29.88,WSW,257,1.0,8.0,64,0.00,,,0.00,,2013-01-08 07:42:00,
2013-01-08 02:52:00,30.0,20.0,29.88,NW,306,0.0,5.0,65,0.00,,,0.00,,2013-01-08 07:52:00,
2013-01-08 03:02:00,30.0,20.0,29.89,West,281,0.0,3.0,65,0.00,,,0.00,,2013-01-08 08:02:00,
2013-01-08 03:12:00,30.0,20.0,29.89,West,281,0.0,3.0,65,0.00,,,0.00,,2013-01-08 08:12:00,
2013-01-08 03:22:00,30.0,20.0,29.90,West,269,0.0,13.0,66,0.00,,,0.00,,2013-01-08 08:22:00,
2013-01-08 03:32:00,30.0,21.0,29.91,West,279,2.0,8.0,68,0.00,,,0.00,,2013-01-08 08:32:00,
2013-01-08 03:42:00,30.0,21.0,29.91,West,279,2.0,8.0,68,0.00,,,0.00,,2013-01-08 08:42:00,
2013-01-08 03:52:00,31.0,21.0,29.91,NNW,329,0.0,6.0,65,0.00,,,0.00,,2013-01-08 08:52:00,
2013-01-08 04:02:00,30.0,20.0,29.92,WSW,252,0.0,4.0,66,0.00,,,0.00,,2013-01-08 09:02:00,
2013-01-08 04:12:00,30.0,20.0,29.92,WSW,252,0.0,4.0,66,0.00,,,0.00,,2013-01-08 09:12:00,
2013-01-08 04:22:00,30.0,20.0,29.93,WSW,247,2.0,9.0,66,0.00,,,0.00,,2013-01-08 09:22:00,
2013-01-08 04:32:00,30.0,20.0,29.93,WNW,290,0.0,4.0,66,0.00,,,0.00,,2013-01-08 09:32:00,
2013-01-08 04:42:00,30.0,20.0,29.93,WNW,290,0.0,4.0,66,0.00,,,0.00,,2013-01-08 09:42:00,
2013-01-08 04:52:00,30.0,21.0,29.94,SW,215,0.0,2.0,68,0.00,,,0.00,,2013-01-08 09:52:00,
2013-01-08 05:02:00,30.0,21.0,29.95,SSE,167,0.0,2.0,68,0.00,,,0.00,,2013-01-08 10:02:00,
2013-01-08 05:12:00,30.0,21.0,29.95,SSE,167,0.0,2.0,68,0.00,,,0.00,,2013-01-08 10:12:00,
2013-01-08 05:22:00,29.0,20.0,29.95,SSE,167,0.0,2.0,69,0.00,,,0.00,,2013-01-08 10:22:00,
2013-01-08 05:32:00,28.0,20.0,29.96,SSE,167,0.0,1.0,70,0.00,,,0.00,,2013-01-08 10:32:00,
2013-01-08 05:42:00,28.0,20.0,29.96,SSE,167,0.0,1.0,70,0.00,,,0.00,,2013-01-08 10:42:00,
2013-01-08 05:52:00,28.0,20.0,29.96,SSE,159,0.0,5.0,72,0.00,,,0.00,,2013-01-08 10:52:00,
2013-01-08 06:02:00,28.0,20.0,29.96,SSW,192,0.0,3.0,72,0.00,,,0.00,,2013-01-08 11:02:00,
2013-01-08 06:12:00,28.0,20.0,29.96,SSW,192,0.0,3.0,72,0.00,,,0.00,,2013-01-08 11:12:00,
2013-01-08 06:22:00,27.0,19.0,29.96,SSE,165,1.0,6.0,72,0.00,,,0.00,,2013-01-08 11:22:00,
2013-01-08 06:33:00,27.0,20.0,29.97,South,171,0.0,4.0,73,0.00,,,0.00,,2013-01-08 11:33:00,
2013-01-08 06:42:00,27.0,20.0,29.97,South,171,0.0,4.0,73,0.00,,,0.00,,2013-01-08 11:42:00,
2013-01-08 06:53:00,27.0,20.0,29.98,WSW,248,0.0,5.0,74,0.00,,,0.00,,2013-01-08 11:53:00,
2013-01-08 07:03:00,26.0,19.0,29.98,SW,232,1.0,5.0,74,0.00,,,0.00,,2013-01-08 12:03:00,
2013-01-08 07:12:00,26.0,19.0,29.98,SW,232,1.0,5.0,74,0.00,,,0.00,,2013-01-08 12:12:00,
2013-01-08 07:22:00,26.0,19.0,29.98,WSW,243,0.0,8.0,75,0.00,,,0.00,,2013-01-08 12:22:00,
2013-01-08 07:33:00,26.0,19.0,29.99,West,267,0.0,3.0,76,0.00,,,0.00,,2013-01-08 12:33:00,
2013-01-08 07:42:00,26.0,19.0,29.99,West,267,0.0,3.0,76,0.00,,,0.00,,2013-01-08 12:42:00,
2013-01-08 07:53:00,26.0,19.0,29.99,WSW,257,0.0,5.0,76,0.00,,,0.00,,2013-01-08 12:53:00,
2013-01-08 08:03:00,26.0,20.0,30.00,WSW,243,0.0,6.0,77,0.00,,,0.00,,2013-01-08 13:03:00,
2013-01-08 08:12:00,26.0,20.0,30.00,WSW,243,0.0,6.0,77,0.00,,,0.00,,2013-01-08 13:12:00,
2013-01-08 08:22:00,25.0,19.0,30.00,WSW,245,0.0,5.0,77,0.00,,,0.00,,2013-01-08 13:22:00,
2013-01-08 08:33:00,25.0,19.0,30.01,WNW,287,0.0,4.0,77,0.00,,,0.00,,2013-01-08 13:33:00,
2013-01-08 08:42:00,25.0,19.0,30.01,WNW,287,0.0,4.0,77,0.00,,,0.00,,2013-01-08 13:42:00,
2013-01-08 08:52:00,26.0,20.0,30.01,SSW,196,0.0,3.0,77,0.00,,,0.00,,2013-01-08 13:52:00,
2013-01-08 09:02:00,25.0,19.0,30.01,SE,146,0.0,2.0,77,0.00,,,0.00,,2013-01-08 14:02:00,
2013-01-08 09:12:00,25.0,19.0,30.01,SE,146,0.0,2.0,77,0.00,,,0.00,,2013-01-08 14:12:00,
2013-01-08 09:23:00,25.0,19.0,30.02,SSE,158,0.0,1.0,78,0.00,,,0.00,,2013-01-08 14:23:00,
2013-01-08 09:33:00,26.0,20.0,30.03,SSE,158,0.0,3.0,77,0.00,,,0.00,,2013-01-08 14:33:00,
2013-01-08 09:43:00,26.0,20.0,30.03,SSE,158,0.0,3.0,77,0.00,,,0.00,,2013-01-08 14:43:00,
2013-01-08 09:53:00,26.0,19.0,30.03,SSW,197,0.0,4.0,76,0.00,,,0.00,,2013-01-08 14:53:00,
2013-01-08 10:02:00,27.0,20.0,30.03,SSW,197,0.0,1.0,75,0.00,,,0.00,,2013-01-08 15:02:00,
2013-01-08 10:12:00,27.0,20.0,30.03,SSW,197,0.0,1.0,75,0.00,,,0.00,,2013-01-08 15:12:00,
2013-01-08 10:22:00,29.0,20.0,30.03,SSW,197,0.0,2.0,69,0.00,,,0.00,,2013-01-08 15:22:00,
2013-01-08 10:33:00,31.0,21.0,30.04,SSW,197,0.0,1.0,65,0.00,,,0.00,,2013-01-08 15:33:00,
2013-01-08 10:43:00,31.0,21.0,30.04,SSW,197,0.0,1.0,65,0.00,,,0.00,,2013-01-08 15:43:00,
2013-01-08 10:53:00,32.0,21.0,30.04,SSW,197,0.0,1.0,63,0.00,,,0.00,,2013-01-08 15:53:00,
2013-01-08 11:03:00,32.0,21.0,30.04,SSW,198,0.0,4.0,63,0.00,,,0.00,,2013-01-08 16:03:00,
2013-01-08 11:12:00,32.0,21.0,30.04,SSW,198,0.0,4.0,63,0.00,,,0.00,,2013-01-08 16:12:00,
2013-01-08 11:22:00,31.0,20.0,30.05,South,191,0.0,5.0,64,0.00,,,0.00,,2013-01-08 16:22:00,
2013-01-08 11:33:00,32.0,21.0,30.05,SSW,203,0.0,3.0,64,0.00,,,0.00,,2013-01-08 16:33:00,
2013-01-08 11:42:00,32.0,21.0,30.05,SSW,203,0.0,3.0,64,0.00,,,0.00,,2013-01-08 16:42:00,
2013-01-08 11:52:00,33.0,21.0,30.04,SSW,203,0.0,3.0,61,0.00,,,0.00,,2013-01-08 16:52:00,
2013-01-08 12:03:00,33.0,21.0,30.04,SSW,195,0.0,5.0,62,0.01,,,0.01,,2013-01-08 17:03:00,
2013-01-08 12:13:00,33.0,21.0,30.04,SSW,195,0.0,5.0,62,0.01,,,0.01,,2013-01-08 17:13:00,
2013-01-08 12:23:00,34.0,22.0,30.04,SSW,195,0.0,3.0,61,0.01,,,0.01,,2013-01-08 17:23:00,
2013-01-08 12:33:00,34.0,22.0,30.03,SSW,192,0.0,5.0,60,0.01,,,0.01,,2013-01-08 17:33:00,
2013-01-08 12:43:00,34.0,22.0,30.03,SSW,192,0.0,5.0,60,0.01,,,0.01,,2013-01-08 17:43:00,
2013-01-08 12:53:00,35.0,22.0,30.03,SSW,192,0.0,3.0,59,0.01,,,0.01,,2013-01-08 17:53:00,
2013-01-08 13:03:00,35.0,22.0,30.02,South,178,0.0,7.0,59,0.00,,,0.01,,2013-01-08 18:03:00,
2013-01-08 13:13:00,35.0,22.0,30.02,South,178,0.0,7.0,59,0.00,,,0.01,,2013-01-08 18:13:00,
2013-01-08 13:23:00,36.0,23.0,30.02,South,178,0.0,4.0,58,0.00,,,0.01,,2013-01-08 18:23:00,
2013-01-08 13:33:00,37.0,23.0,30.01,South,178,1.0,5.0,56,0.00,,,0.01,,2013-01-08 18:33:00,
2013-01-08 13:43:00,37.0,23.0,30.01,South,178,1.0,5.0,56,0.00,,,0.01,,2013-01-08 18:43:00,
2013-01-08 13:53:00,36.0,23.0,30.01,SSE,168,1.0,5.0,58,0.00,,,0.01,,2013-01-08 18:53:00,
2013-01-08 14:03:00,36.0,23.0,30.00,South,169,1.0,6.0,59,0.00,,,0.01,,2013-01-08 19:03:00,
2013-01-08 14:12:00,36.0,23.0,30.00,South,169,1.0,6.0,59,0.00,,,0.01,,2013-01-08 19:12:00,
2013-01-08 14:22:00,36.0,23.0,29.99,SE,146,1.0,9.0,59,0.00,,,0.01,,2013-01-08 19:22:00,
2013-01-08 14:32:00,36.0,23.0,29.99,SE,146,1.0,9.0,59,0.00,,,0.01,,2013-01-08 19:32:00,
2013-01-08 14:42:00,36.0,23.0,29.99,SE,146,1.0,9.0,59,0.00,,,0.01,,2013-01-08 19:42:00,
2013-01-08 14:53:00,37.0,23.0,29.99,South,173,2.0,6.0,57,0.00,,,0.01,,2013-01-08 19:53:00,
2013-01-08 15:03:00,37.0,23.0,29.98,ESE,113,0.0,7.0,57,0.00,,,0.01,,2013-01-08 20:03:00,
2013-01-08 15:12:00,37.0,23.0,29.98,ESE,113,0.0,7.0,57,0.00,,,0.01,,2013-01-08 20:12:00,
2013-01-08 15:23:00,37.0,24.0,29.98,SSE,149,1.0,5.0,58,0.00,,,0.01,,2013-01-08 20:23:00,
2013-01-08 15:33:00,37.0,24.0,29.98,SSE,149,1.0,5.0,58,0.00,,,0.01,,2013-01-08 20:33:00,
2013-01-08 15:43:00,37.0,24.0,29.98,SSE,149,1.0,5.0,58,0.00,,,0.01,,2013-01-08 20:43:00,
2013-01-08 15:53:00,37.0,23.0,29.99,South,174,1.0,4.0,56,0.00,,,0.01,,2013-01-08 20:53:00,
2013-01-08 16:03:00,37.0,23.0,29.99,South,174,1.0,4.0,56,0.00,,,0.01,,2013-01-08 21:03:00,
2013-01-08 16:13:00,37.0,23.0,29.99,South,174,1.0,4.0,56,0.00,,,0.01,,2013-01-08 21:13:00,
2013-01-08 16:23:00,37.0,24.0,29.97,South,180,0.0,5.0,59,0.00,,,0.01,,2013-01-08 21:23:00,
2013-01-08 16:33:00,36.0,23.0,29.97,SSE,160,0.0,2.0,60,0.00,,,0.01,,2013-01-08 21:33:00,
2013-01-08 16:43:00,36.0,23.0,29.97,SSE,160,0.0,2.0,60,0.00,,,0.01,,2013-01-08 21:43:00,
2013-01-08 16:53:00,36.0,24.0,29.96,SSE,160,0.0,2.0,62,0.00,,,0.01,,2013-01-08 21:53:00,
2013-01-08 17:03:00,36.0,24.0,29.96,SSE,160,0.0,2.0,61,0.00,,,0.01,,2013-01-08 22:03:00,
2013-01-08 17:12:00,36.0,24.0,29.96,SSE,160,0.0,2.0,61,0.00,,,0.01,,2013-01-08 22:12:00,
2013-01-08 17:23:00,36.0,25.0,29.95,SSE,160,0.0,2.0,63,0.00,,,0.01,,2013-01-08 22:23:00,
2013-01-08 17:33:00,36.0,25.0,29.94,SSE,160,0.0,3.0,65,0.00,,,0.01,,2013-01-08 22:33:00,
2013-01-08 17:43:00,36.0,25.0,29.94,SSE,160,0.0,3.0,65,0.00,,,0.01,,2013-01-08 22:43:00,
2013-01-08 17:52:00,36.0,26.0,29.92,SSE,155,0.0,5.0,66,0.00,,,0.01,,2013-01-08 22:52:00,
2013-01-08 18:02:00,36.0,25.0,29.92,SSE,150,0.0,6.0,64,0.00,,,0.01,,2013-01-08 23:02:00,
2013-01-08 18:12:00,36.0,25.0,29.92,SSE,150,0.0,6.0,64,0.00,,,0.01,,2013-01-08 23:12:00,
2013-01-08 18:22:00,35.0,23.0,29.92,SE,140,1.0,11.0,62,0.00,,,0.01,,2013-01-08 23:22:00,
2013-01-08 18:32:00,35.0,25.0,29.91,South,173,2.0,11.0,66,0.00,,,0.01,,2013-01-08 23:32:00,
2013-01-08 18:43:00,35.0,25.0,29.91,South,173,2.0,11.0,66,0.00,,,0.01,,2013-01-08 23:43:00,
2013-01-08 18:52:00,34.0,26.0,29.91,South,180,2.0,11.0,71,0.00,,,0.01,,2013-01-08 23:52:00,
2013-01-08 19:03:00,33.0,26.0,29.91,SE,144,2.0,9.0,74,0.00,,,0.01,,2013-01-09 00:03:00,
2013-01-08 19:12:00,33.0,26.0,29.91,SE,144,2.0,9.0,74,0.00,,,0.01,,2013-01-09 00:12:00,
2013-01-08 19:22:00,33.0,27.0,29.90,SSW,197,4.0,11.0,79,0.00,,,0.01,,2013-01-09 00:22:00,
2013-01-08 19:33:00,33.0,28.0,29.89,SSW,194,3.0,14.0,82,0.00,,,0.01,,2013-01-09 00:33:00,
2013-01-08 19:42:00,33.0,28.0,29.89,SSW,194,3.0,14.0,82,0.00,,,0.01,,2013-01-09 00:42:00,
2013-01-08 19:52:00,33.0,28.0,29.88,SE,142,2.0,16.0,83,0.00,,,0.01,,2013-01-09 00:52:00,
2013-01-08 20:02:00,34.0,29.0,29.87,South,185,1.0,8.0,83,0.00,,,0.01,,2013-01-09 01:02:00,
2013-01-08 20:12:00,34.0,29.0,29.87,South,185,1.0,8.0,83,0.00,,,0.01,,2013-01-09 01:12:00,
2013-01-08 20:22:00,34.0,29.0,29.87,South,185,1.0,8.0,83,0.00,,,0.01,,2013-01-09 01:22:00,
2013-01-08 20:32:00,34.0,29.0,29.85,SSE,151,3.0,12.0,83,0.00,,,0.01,,2013-01-09 01:32:00,
2013-01-08 20:42:00,34.0,29.0,29.85,SSE,151,3.0,12.0,83,0.00,,,0.01,,2013-01-09 01:42:00,
2013-01-08 20:52:00,35.0,30.0,29.84,South,182,2.0,10.0,83,0.00,,,0.01,,2013-01-09 01:52:00,
2013-01-08 21:02:00,35.0,30.0,29.83,South,180,3.0,10.0,83,0.00,,,0.01,,2013-01-09 02:02:00,
2013-01-08 21:12:00,35.0,30.0,29.83,South,180,3.0,10.0,83,0.00,,,0.01,,2013-01-09 02:12:00,
2013-01-08 21:22:00,35.0,30.0,29.82,ENE,68,1.0,13.0,82,0.00,,,0.01,,2013-01-09 02:22:00,
2013-01-08 21:33:00,35.0,30.0,29.81,SSE,148,2.0,11.0,82,0.00,,,0.01,,2013-01-09 02:33:00,
2013-01-08 21:43:00,35.0,30.0,29.81,SSE,148,2.0,11.0,82,0.00,,,0.01,,2013-01-09 02:43:00,
2013-01-08 21:52:00,36.0,31.0,29.79,SE,132,3.0,13.0,82,0.00,,,0.01,,2013-01-09 02:52:00,
2013-01-08 22:03:00,36.0,31.0,29.77,SSE,154,2.0,14.0,82,0.00,,,0.01,,2013-01-09 03:03:00,
2013-01-08 22:12:00,36.0,31.0,29.77,SSE,154,2.0,14.0,82,0.00,,,0.01,,2013-01-09 03:12:00,
2013-01-08 22:22:00,36.0,31.0,29.76,South,169,3.0,12.0,82,0.00,,,0.01,,2013-01-09 03:22:00,
2013-01-08 22:33:00,36.0,31.0,29.76,South,169,3.0,12.0,82,0.00,,,0.01,,2013-01-09 03:33:00,
2013-01-08 22:43:00,36.0,31.0,29.76,South,169,3.0,12.0,82,0.00,,,0.01,,2013-01-09 03:43:00,
2013-01-08 22:52:00,36.0,30.0,29.75,SSE,150,2.0,23.0,80,0.00,,,0.01,,2013-01-09 03:52:00,
2013-01-08 23:02:00,36.0,30.0,29.74,SSW,200,1.0,11.0,79,0.00,,,0.01,,2013-01-09 04:02:00,
2013-01-08 23:12:00,36.0,30.0,29.74,SSW,200,1.0,11.0,79,0.00,,,0.01,,2013-01-09 04:12:00,
2013-01-08 23:22:00,36.0,30.0,29.74,SSW,200,1.0,11.0,79,0.00,,,0.01,,2013-01-09 04:22:00,
2013-01-08 23:32:00,37.0,30.0,29.72,South,185,2.0,14.0,76,0.00,,,0.01,,2013-01-09 04:32:00,
2013-01-08 23:43:00,37.0,30.0,29.72,South,185,2.0,14.0,76,0.00,,,0.01,,2013-01-09 04:43:00,
2013-01-08 23:52:00,37.0,30.0,29.72,South,191,3.0,14.0,75,0.00,,,0.01,,2013-01-09 04:52:00,